CAPE
1044 1641 2074 963 1656 875 1229 1040 1139 1254 1480 1633 1598 1880 2244 2164 2524 2530 2284 2358 2647 2814 2907 3052 2843 2690 2562 2237 2676 3265 3544 3716 4029 4193 3918 3933 4083 4163 3953 3696 3082 2880 2552 3491 4128 3872 2936 2679 3090 2627 2394 2054 1921 2174 2800 2617 2426 2150 2017 2284 2299 2100 2179 1955 1890 1765 1695 1707 1593 1394 1136 1017 1189 746 732 802 724 546 1023 1089 1005 713 1134 1372 1458
1451 1707 2025 1470 817 1117 1377 1245 1108 1302 1552 1669 1578 1759 1872 2274 2505 2170 1903 2208 2481 2776 2905 2972 2856 2503 2240 2218 2540 3101 3574 3864 3935 3708 3741 4013 4183 4188 3870 3354 3092 3490 4376 4294 3719 3420 2627 2925 3406 3339 2910 2335 2175 2296 2172 2140 2200 2118 2153 2763 2482 3490 2209 1684 1886 1615 1602 1378 1380 979 936 1053 1040 844 633 624 701 721 708 683 727 792 1519 1551 1528
1598 1316 1740 1644 1142 642 1220 1297 1030 858 1251 1689 1859 1694 2159 2254 2477 2482 2100 2109 2402 2665 2807 2738 2438 2162 2068 2179 2796 3102 3665 3534 3469 3567 3633 3896 4037 3951 3501 3034 2706 3251 4374 3499 2882 3626 3524 3494 3508 3177 2630 2814 2703 2685 2140 1630 1919 2014 1823 2090 2478 2850 2796 3218 3030 3006 1781 1401 1184 835 849 827 846 784 689 876 958 1083 1088 984 725 1191 1580 1736 1462
1227 1116 1502 1698 1289 1370 1323 976 904 1051 1528 1426 2042 1665 1721 2034 2352 2594 2634 2302 2194 2332 2306 2180 1900 1696 1655 1811 2524 2968 3190 3207 3342 3465 3514 3531 3278 3227 3065 2695 2585 2177 3194 2856 3658 3520 3590 3570 3734 3252 2803 2789 2715 2916 2415 2512 2266 2741 2368 2379 2354 2556 2705 3018 2824 1846 1568 1356 1034 1129 666 836 1091 784 815 899 1066 1205 1265 947 1488 2072 1664 1524 1391
1170 1246 1034 1687 1398 1363 1774 1332 989 810 1027 1496 2348 2508 2207 2350 1887 2190 2188 2361 2429 2206 2151 2058 1720 1724 1834 1978 2145 2491 2674 2724 3006 3373 3407 3072 2841 2656 2694 3181 3420 2655 2991 3014 3213 3282 3188 3148 3442 3386 3205 3256 2963 3036 2729 2545 2527 2688 2235 2060 1819 2073 1876 2290 2666 2530 2466 1469 677 364 294 756 1278 1093 634 1079 970 832 1443 1696 1779 2075 1838 1630 1370
856 953 1368 1778 1902 1547 1104 1682 996 1375 900 1381 2439 2708 2676 2594 2272 2368 2432 2360 2425 1898 1926 2266 2064 1957 2146 2186 2289 2386 2454 2782 2897 3225 3006 2873 2546 2620 3024 3627 3990 3166 2548 2502 3059 3399 3248 3314 3428 3559 3553 3037 2872 3078 3151 2848 2285 2468 2841 2366 1918 1522 2248 2314 2498 2541 2184 2186 1019 662 320 553 1844 1345 1000 1235 1155 952 1646 1711 1334 1658 1628 1845 1629
1269 1125 1187 1176 2056 1874 1336 1524 664 898 1395 1850 2304 2306 2138 2557 2402 2404 2593 2760 2665 2466 2474 2394 2218 2102 2328 2212 2226 2336 2426 2589 2752 2819 2616 2468 2376 2333 2633 3080 3698 3321 3130 3409 3483 3306 3438 3125 3118 3326 3521 3684 3412 3502 3155 2500 2292 1831 2286 2099 1975 1956 1864 2240 2607 2780 2574 2456 1192 455 363 692 1244 1549 1843 1799 1557 1508 1276 1825 1852 1468 1380 1638 1338
1003 1210 1050 1618 2008 918 1092 1166 1025 1707 2064 2438 2281 1927 1823 2029 2318 2181 2428 2770 2524 2746 3016 2757 2530 2532 2209 2043 2098 2128 2196 2289 2412 2425 2598 2444 2382 2344 2240 2805 3534 3079 2792 2996 2846 2806 3137 3150 3113 3380 3783 3493 3275 3359 2524 2141 1998 2134 2160 2620 2039 1684 1887 1899 2105 2624 2414 2327 916 484 421 807 1349 1634 2030 1644 1633 1677 1319 1924 1842 1606 883 905 1289
1205 1541 873 1212 1721 1122 1428 1146 965 1618 2341 2591 2647 1945 2141 2142 2024 2346 2002 2064 2185 2437 2722 2603 2459 2482 2209 1925 1928 2063 2257 2504 2322 2394 2390 2327 2106 2091 2405 3313 3012 2410 2678 2832 2542 2347 2178 2921 3094 3576 3137 3238 2899 3084 2242 1988 2037 2028 2114 2042 2052 1918 2048 1905 1995 2866 3155 2277 1388 892 688 552 790 804 1930 1695 1325 1437 1317 1431 1752 1322 1053 1256 1213
1058 896 1114 1181 1677 1578 1767 2357 2349 1726 2460 2457 2872 2346 2311 1946 2122 2126 2558 2117 1864 2008 2277 2349 2395 2445 2100 1714 1907 2096 2158 2044 2123 2250 2178 2189 2170 2335 2261 1839 2480 2573 2567 2528 2192 2352 2639 2670 2529 2812 3268 3396 2851 2995 2842 2514 2316 2077 2107 2054 2056 2169 2076 2210 2364 2444 2856 2896 1016 1532 924 710 930 643 1792 1358 959 1142 1232 1301 842 570 1182 1233 993
1259 1119 1144 1204 1493 2217 2116 2309 2491 2384 2679 2842 3152 3109 2534 2060 1627 2234 2058 2283 1992 1938 1920 2244 2195 2062 1812 1922 1977 2068 2025 2030 2228 2209 2187 2074 1813 2228 1567 1548 2059 2017 2526 2371 2250 2334 2323 2636 2495 2498 2888 3056 2676 3196 2967 2846 2001 2186 2225 2058 2051 2136 2108 2679 2089 2130 1654 2859 2016 2023 844 1495 802 1033 2159 1363 1034 1176 1144 1226 1172 1397 1231 860 1276
1040 1218 1433 1689 2430 2317 2314 2412 2623 2401 2750 2606 3190 3158 2855 2696 2031 1943 2077 1987 1833 1717 1792 1927 2015 1864 1830 1800 1831 1896 1920 2029 1632 1751 1850 2299 2210 1728 1590 1254 1806 2133 2305 2338 2385 2489 2896 3068 2940 2772 3088 2936 3236 2990 2906 2786 2497 2707 2585 2502 2393 2148 2596 3012 2503 2310 2910 3143 2025 1765 2120 1700 1606 1224 1848 1453 1148 1060 1137 1097 996 1309 1194 1367 1282
1213 1342 1631 1973 2299 2294 2357 2500 2700 2955 2638 2822 3076 3038 2982 2854 2517 2389 2370 2016 1678 1524 1610 1538 1340 1419 1475 1575 1640 1759 1640 1455 1453 1342 2161 2394 1945 1468 1206 1428 1906 1767 1530 2011 2827 3325 3353 3172 3126 3069 3027 3010 2979 3399 3425 2692 2805 2631 3074 2808 2204 2530 2336 3068 2731 2587 3194 3698 4208 3551 2363 2335 2044 2560 1410 1787 1518 1472 1308 1027 1332 1080 1156 1364 1305
1094 1327 1282 962 1971 2824 2510 2576 2449 3058 2848 3026 3052 2992 2991 2848 2720 2793 2690 2153 1700 1554 1540 1294 1156 1142 1289 1384 1646 1586 1343 1320 1348 1658 2189 1715 2023 1716 1885 1590 1529 1539 1747 2264 2915 3246 3202 3231 3324 3163 3412 3235 3284 3082 3153 3116 3096 2855 2754 2566 2366 2541 3050 2759 2699 2483 3592 3954 2505 3706 3660 2801 2558 3052 1280 1024 1680 1608 1532 1330 1362 1283 908 1206 1244
1154 1055 1139 1678 2280 2455 2830 2963 2872 3214 3124 3034 3064 3041 2979 2932 2716 2669 2534 2306 1648 1487 1476 1533 1253 1664 1706 1384 1559 1336 1368 1288 1458 1761 1798 2522 2886 1964 1844 1721 1823 1520 2011 2545 3162 3089 3144 3529 3324 3420 2900 2743 2925 2592 2875 2801 2854 2971 3033 2528 2264 2858 2495 2548 2372 2307 2367 2168 3511 3439 2822 2473 3262 3761 1433 1241 1177 1394 1600 1370 1636 1570 831 1222 1166
853 971 1435 1988 2343 2350 3064 2916 3210 3230 3212 3371 3266 3068 3041 3027 2719 2479 2459 2371 1487 1654 2152 1536 1627 1779 1606 1584 1536 1587 1377 1406 1828 2433 2528 2698 2687 2373 2568 2177 2064 2126 2361 2618 2750 2771 2652 2411 2598 2970 2239 2195 2434 2233 2759 2687 2613 2332 2630 2931 2334 2519 2430 1880 2609 2586 2603 3084 3379 3167 2681 2287 2959 3695 1778 1346 1360 1426 1432 1381 1570 1497 1156 1060 1123
1346 1426 1594 2120 2622 1984 2650 2468 3039 3192 2805 3067 3059 3145 3105 2916 2726 2558 2460 2500 2923 2364 2198 2216 1949 2059 2052 1796 1669 1760 1653 1879 2306 2996 3080 2640 2480 2385 2570 2080 2388 2213 2622 2849 2580 2790 2374 1778 1392 1991 1920 1992 2030 2034 2579 2677 2493 2606 2554 2687 2547 2472 2446 2198 3112 2908 2856 2762 2125 2264 2588 2470 1994 3660 2090 1575 1382 1470 1454 1381 1679 1533 1428 1062 1189
1990 1817 1737 2243 2517 2908 2083 2304 3352 3358 2562 3276 2930 3156 2925 3150 3059 2841 2616 3065 2804 2537 2505 1907 2079 1944 1979 2306 2200 2526 2600 2679 2637 2678 2911 2100 1975 2514 2331 2356 2460 2410 2464 2664 2290 2582 2260 1745 1686 1844 2543 1933 1898 1962 2612 2722 3033 2879 3038 3164 2857 2861 2212 2248 3094 2941 2701 2349 2224 2033 1964 2021 1771 3572 2421 1682 1327 1434 1644 1566 1647 1439 1246 1143 1156
2216 1993 2250 2333 1856 1866 1610 2707 3668 2876 2685 2544 2504 3554 3726 3496 3375 2824 3006 3035 2823 2610 2696 2046 1962 1865 2048 2382 2546 2300 2444 2338 2624 2660 2603 1683 2333 2323 2336 2247 2405 2388 2614 2950 2372 1971 1856 1790 1925 2150 2680 2256 2162 2155 2620 2935 3224 3247 3266 3612 3909 3344 2873 2344 3600 4068 2993 2336 2252 2344 2328 2110 1757 2516 2808 1781 1335 1386 1627 1660 1660 1449 1301 1194 1062
2363 1926 2062 2263 2286 2435 2358 2499 3013 2761 2690 3073 3246 3026 2958 3184 3262 3324 3412 3244 2960 2602 2280 2196 1978 1724 1980 2585 2452 2480 2462 2676 2468 2214 2328 2494 2516 2772 2739 2972 2660 2470 2542 2818 2562 2490 2511 2284 2359 2346 2530 3034 2684 2296 2788 3191 3206 3124 3226 3012 2810 2575 2867 2322 2772 3372 3390 2688 1870 1755 1961 1713 2168 2218 2869 2067 1546 1387 1606 1570 1788 1646 1395 1340 1548
2504 2572 2662 2713 1911 2472 1896 1960 2665 1644 2012 2124 2898 2940 2984 3241 3306 3555 3541 3424 3345 2911 2758 2263 1882 1635 1988 2466 2411 2072 2823 3038 3076 2855 1796 1551 2051 2806 2702 2672 2803 2734 2766 2771 2728 2780 2702 2572 2652 2202 2241 2960 3093 2732 3224 3397 2981 3156 3110 2603 2746 1376 1600 1876 1380 1556 2410 2749 1990 1839 2231 2099 2073 2723 2874 2148 1691 1358 1430 1422 1591 1644 1630 1380 1685
2058 2418 2428 2204 1842 2489 2580 2145 2317 3142 2793 2960 2598 2295 2366 2628 2011 2580 2742 3302 3608 3512 2318 1520 1509 1994 1619 1919 2174 2392 2825 3247 2800 1992 1874 2524 2245 2749 3019 3231 2483 2571 3144 2614 2924 3248 2955 2255 2227 2203 3052 3556 3450 2689 3210 3558 3142 2956 2610 2387 2083 2018 1936 1825 1783 1080 1382 2378 2592 2780 2662 2856 2605 3256 2762 2369 2264 1276 1443 1476 1397 1585 1664 1584 1329
1156 1440 1585 1510 1661 2002 2750 2484 2530 2998 2571 2742 2105 2633 3142 2672 3062 1913 1801 2213 2031 2074 2055 1665 1977 2475 2502 2278 2730 3258 2452 2973 2840 2754 2734 2119 2164 2697 3703 3580 2841 3372 2991 2818 3183 3110 1902 1708 1870 2357 3223 3434 2327 2388 2278 2334 2462 2411 2232 2421 2384 2322 2087 2015 1840 1712 1465 1527 1599 3098 3388 3054 3479 3432 2811 2767 2480 1988 1302 1370 1537 1545 1460 1590 1468
1248 1309 1005 1476 1847 1497 1422 1894 2104 2204 2466 1785 1884 2419 2992 2919 2220 2823 2772 2176 2409 2134 2466 2362 2806 3316 3266 2879 2500 2586 2568 2904 2415 2445 2894 2274 2497 3224 3764 3298 3315 2782 3004 3280 3346 2537 2019 2290 2367 2750 3595 1346 1361 1497 1418 1845 2032 2242 2624 2480 2504 2553 2226 2011 1928 1839 1893 2310 2534 2211 2854 3535 3547 2910 2647 2758 2417 2082 1732 1504 1498 1527 1549 1572 1566
1288 1570 1117 1544 1648 1758 2014 2022 2495 2329 2056 2494 2240 1708 2164 1743 1434 1407 1960 2266 2208 1875 2861 2958 2905 2834 2770 2937 2463 2540 2476 2488 2652 2424 2173 2204 2063 2050 2125 2378 2552 3452 2482 2674 2040 1552 1298 1246 1450 1510 1489 1231 1268 1352 1651 1774 2083 2170 2122 2232 2277 2529 2315 2091 2148 2028 2078 2292 2356 2391 2566 3045 3570 3170 2622 2402 2287 2411 2406 2676 2372 1711 1517 1617 1724
1571 1331 1288 1660 1963 1749 1658 1679 2281 2003 2161 2200 2160 2412 1962 1940 1964 1843 2442 2516 2344 2498 2399 2338 2456 2550 2820 2368 2308 2426 2132 2120 1996 2086 1954 2063 1985 2030 2020 2310 2762 2694 2685 2294 2017 1694 1516 1564 1570 1607 1550 1439 1527 1839 1925 2227 2180 2119 1973 1836 1790 1920 1883 1974 1921 2138 2152 2370 2199 2514 2601 3064 3320 3508 2919 2722 2365 2067 2411 2542 2824 2531 1934 1650 1659
1398 1497 1407 1654 1774 1804 1938 2240 1876 2240 2190 2166 1630 2777 2892 1903 2280 2365 2349 2444 2332 2381 2355 2169 2302 2729 2713 2349 2078 1886 1770 1754 1839 1776 1665 1790 1936 1998 2079 2308 2386 2216 2374 1851 2017 1772 1501 1542 1553 1851 1592 1519 1646 2012 2004 2039 2477 2083 1699 1786 1460 1091 1152 1079 1118 1444 1748 1966 2705 2451 2845 3033 3132 3343 3342 3022 2543 2270 1836 1855 2421 2790 2565 2165 1936
1492 1521 1581 1658 1660 1416 1950 2539 1846 1964 2049 2170 1884 1967 1926 1636 2156 2401 2408 1984 1990 2117 2303 2027 2303 2720 2942 2484 2030 2050 1950 1628 1519 1568 1556 1864 1900 2024 2064 1834 1848 2049 2258 1426 1278 1599 1562 1663 1728 2055 1991 1929 1584 1742 1673 1929 2031 1973 1136 862 952 902 1008 951 925 1249 1258 1300 2278 3197 3022 3044 3326 3440 3453 3326 3061 2481 1973 1786 1846 2428 2738 2442 2419
1275 1423 1529 1740 1636 1532 1616 1612 1740 2015 1496 1830 1839 1971 2169 2204 2238 2809 2380 1935 2515 2113 1984 2122 2244 2394 2373 2486 2505 2271 1994 1760 1743 1842 1822 1846 1437 1798 2090 1874 2080 2098 2058 1635 1560 1282 1661 1747 1987 1920 1773 1896 1559 1584 1802 1776 1218 771 658 655 622 636 894 895 884 1116 1085 1398 1552 2710 3004 3044 3404 3558 3544 3614 3328 2980 2078 1958 2145 2328 2264 2330 2046
1456 1402 1515 1817 1804 1885 1684 1611 1654 1882 1659 1554 1626 2100 2411 2454 2367 2376 2096 1998 2540 2177 2242 2355 2429 2212 2160 2595 2834 2728 2501 2248 1942 1888 2825 2623 2668 2366 2052 1494 2220 2252 1892 1633 1607 1275 1544 1966 2072 1974 1748 1682 1592 1814 1507 1060 546 537 751 691 699 597 672 763 818 848 1221 1492 2152 2377 3036 2990 3198 3339 3562 3434 3233 3112 2512 2350 2086 2524 2557 2356 2429
1318 1496 1337 1507 1888 2018 2128 2065 1992 2041 1988 1979 1973 2368 2633 2700 2514 2441 2389 2280 2402 2321 2369 2246 2230 2051 2059 3093 3583 3480 2487 2588 2649 2716 3051 3034 2697 3228 2780 2432 1575 2232 2222 1607 1746 1575 1604 1895 2220 1582 1712 1898 1685 1752 1332 640 621 647 695 722 717 693 705 713 676 727 1124 1316 1623 2090 2166 2390 3012 3082 3246 3392 3267 3168 3056 2594 2362 2221 2360 2084 2084
1394 1416 1490 1612 1642 2070 2010 2301 2281 2461 2413 1965 2005 2408 2500 2561 2585 2467 2447 2407 2596 2567 2596 1801 2134 2319 2630 3042 3056 3194 3229 2508 3327 3304 2842 2529 2208 2642 2839 2608 2207 1828 1976 1924 1843 1612 1658 2023 2305 2248 1876 1784 1450 1249 992 560 586 512 550 741 969 701 741 651 490 560 721 860 926 1440 1790 1707 2364 2880 3149 3280 3446 3302 3132 3192 3038 2546 2148 1833 1712
1498 1470 1657 1784 1612 1985 2227 2340 2422 2710 2652 1977 1664 1856 1992 1998 2046 2448 2536 2561 2324 2772 2680 2392 2104 1972 3215 2865 2641 3220 3682 3240 3426 3048 3301 3166 2661 3409 2104 2844 2558 2129 1677 2561 1906 1756 1689 1928 2058 2328 2069 1239 842 623 604 464 466 567 634 769 735 798 686 840 928 780 886 696 747 1034 982 1196 1728 3414 3064 3304 3413 3710 2690 2047 2624 2645 1826 1452 1596
1559 1669 1628 1625 1736 2041 2181 2432 2722 2732 2540 1790 1475 1452 1500 1625 1735 1741 2158 2345 2907 2313 1980 1644 2320 2669 2703 3057 2935 3438 3572 3525 2923 3494 3151 3479 2736 2212 2419 2492 1539 1364 2237 3026 1951 2324 1800 2051 1842 1579 1080 862 677 589 491 557 545 573 668 802 744 636 490 677 794 806 776 724 679 499 492 580 765 998 1594 3467 3526 3903 2094 2178 2502 2705 2294 1739 1514
1396 1425 1525 1829 1862 2203 2366 2218 2927 2534 2521 1871 1534 1682 1684 1508 1578 1913 2090 2577 2782 2159 1880 2032 2035 2031 2741 2980 3610 3719 3515 3588 3568 3447 2856 2888 2559 2432 2865 2296 2217 2141 1786 1436 1261 1737 1766 1466 1640 1336 1311 940 928 728 774 647 672 718 787 646 590 380 397 615 804 918 1120 983 894 748 511 339 344 596 804 1184 3730 3299 3318 2276 2196 2273 2234 2558 2702
1699 1801 1718 1900 1889 2052 2849 2501 2740 2489 2326 2059 1766 1806 1721 1818 1833 1902 2108 2770 3271 2792 2446 1876 2568 2564 2500 2456 2940 3328 3344 3220 3208 3018 2703 2404 2200 2521 2342 1391 2186 1951 2470 2101 1607 1344 1870 1462 1461 949 882 974 884 1053 954 984 764 746 663 593 518 386 276 480 535 705 632 884 844 1015 736 730 631 424 658 519 1218 2585 2864 3150 2480 1954 2398 2180 2545
1698 1916 1990 1982 2096 1990 2346 2621 2353 2521 2294 2112 2110 2000 2051 2073 2270 2178 2834 3242 3447 2600 1646 2801 2332 2507 2504 2157 2842 3386 2944 2492 2254 2519 2151 2442 2798 2271 2149 1862 2308 2424 3188 2854 1766 1577 1756 1365 1725 973 657 1026 864 872 958 1185 700 618 651 693 450 383 396 394 443 397 607 732 812 704 1080 1698 1783 1661 1518 310 1073 1256 2286 2666 3199 2798 2372 2168 2148
1844 1920 2116 2157 2098 2028 2060 2222 2193 2239 2448 2290 2419 2425 2439 2550 2514 1774 3217 3434 3193 3289 3266 3082 3050 2198 1921 2169 2673 3086 2994 3140 3546 2802 2438 2505 2125 2513 1492 2163 3036 2231 2734 2366 1983 1379 1008 724 1610 1631 934 1036 727 750 835 634 601 692 617 525 520 251 415 490 485 514 511 440 880 1066 998 1820 2070 2530 1800 1426 710 928 1725 2088 2654 3096 3326 3235 3186
2018 2086 2214 2301 2226 2052 1965 2100 2314 2310 2568 2601 2652 2514 2018 2171 2720 3397 4132 3876 3292 3043 3102 3044 2959 3237 3197 3392 3344 3456 3132 3657 3694 3345 3416 3162 3039 2556 2046 2791 2726 2147 2063 1678 1814 1067 953 942 980 979 1428 1072 782 715 696 611 610 694 527 668 526 506 443 457 436 475 567 430 410 631 418 668 1248 1818 2278 2232 2088 2444 2284 1755 1699 2780 3044 3132 3091
2138 2265 2355 2432 2512 2288 2084 2064 2571 2581 2576 3092 2969 1881 1913 1872 3914 3765 2960 3380 3087 3739 3740 3240 3726 3142 3316 3680 3110 3642 3285 2978 3460 3408 2976 2558 3125 2087 1832 3558 1646 1626 2317 1423 954 948 834 626 526 590 378 513 874 745 626 738 592 550 534 541 483 480 601 530 694 554 601 394 336 322 286 390 453 735 765 1244 1488 1798 2373 2825 2620 2213 2449 2950 2678
2256 2349 2586 2740 2754 2525 2413 2538 2635 2774 2902 2110 3056 2261 1678 1995 2402 2472 1705 2482 1770 3382 3468 3392 3934 3538 3607 3572 3845 3360 2632 2112 2361 2469 3443 3399 2573 2206 2712 2568 2490 2373 2237 1004 953 591 560 369 170 238 276 336 438 713 607 673 503 472 534 272 490 590 526 785 686 504 355 178 43 198 245 252 268 294 552 637 778 894 1346 1361 1415 1628 1745 1508 2382
2394 2658 2906 3126 3162 2859 2474 2301 2450 2623 3060 2535 2806 2288 2010 2320 2474 2954 1868 1519 2111 2152 2553 3160 2297 2682 3984 3666 2817 3269 2974 3022 3146 2388 3984 3080 1952 2002 3205 2206 2816 2336 1556 1112 1010 750 588 472 551 432 601 139 43 417 430 437 511 306 204 28 85 461 737 332 329 370 349 188 66 60 28 1 6 41 131 272 480 521 462 563 786 838 1144 1024 910
2166 2605 3192 3566 3393 3302 2748 2654 2475 2408 2548 2706 3143 2866 2714 3048 2118 1673 1559 2026 1786 1747 2529 2394 2666 3260 2724 2463 2899 2950 2961 2605 2174 3760 3504 2958 2556 2898 2814 2490 1790 1250 1370 1242 974 672 621 240 460 350 344 620 230 247 432 558 93 358 481 4 9 21 813 365 145 248 182 64 4 3 0 0 0 0 8 45 153 332 398 561 747 937 884 827 744
2180 2261 2730 3416 3733 3489 3157 2802 2781 2671 2618 3079 2959 3208 3378 2593 2196 2682 2664 1978 1738 2475 2920 3320 2867 2925 2924 2892 2626 3202 3404 3198 3552 4069 2829 2821 2418 2788 2246 997 1367 1459 1192 969 918 525 556 540 376 376 550 410 228 596 694 524 97 82 142 200 32 4 0 326 193 601 210 203 4 2 0 0 0 0 0 0 6 58 105 267 400 424 310 287 347
2121 2185 2465 2556 3294 3599 3478 3139 3035 2900 2698 2974 3023 2815 3362 2879 2522 3330 3015 3091 2866 2821 2574 1488 1480 2482 2862 2630 3733 3938 3803 3610 3348 2587 2352 3333 2908 2396 1280 1445 1338 1446 974 770 625 371 369 892 983 667 615 379 309 302 808 436 497 500 109 8 362 261 92 334 9 391 204 366 10 6 4 0 0 0 0 0 0 0 2 14 25 18 28 33 68
2119 2185 2338 2652 3015 3058 3085 3023 2504 2696 2450 2502 3238 3286 3445 4023 3165 1980 1966 1814 1724 2005 1457 1548 1402 1548 1082 784 3240 3175 3508 3938 3668 3142 3139 2894 2653 1345 1748 1195 1348 1164 902 534 548 326 822 872 760 528 608 663 399 247 261 519 207 485 422 83 38 72 233 366 219 290 22 33 32 5 4 4 0 0 0 0 0 0 0 0 0 0 0 0 0
1974 2223 2492 2580 2763 2897 2946 3240 3740 3262 2384 2296 2545 2922 3430 3800 2656 2452 2300 1852 1877 1888 1798 1322 945 2790 3060 2819 3116 3292 3576 3192 2716 3406 3379 2475 1971 1989 1860 1145 929 1376 932 533 363 288 964 848 484 700 671 682 300 270 107 42 550 330 264 340 590 656 441 187 202 12 161 42 32 12 24 24 8 4 0 0 0 0 0 0 0 0 0 0 0
1763 2178 2470 2488 2676 2734 3036 3690 3600 3152 2236 2220 2546 2869 3879 4361 3214 2692 2310 2371 1971 1700 1893 1836 1808 2894 3239 2358 2483 2710 3256 3272 3068 3354 3165 2332 2058 2508 1768 994 752 908 884 466 803 1366 1083 863 428 818 547 507 575 433 415 406 122 484 482 532 894 715 270 255 44 0 7 20 33 19 16 10 26 22 8 8 1 0 0 0 0 0 0 0 0
1839 2220 2311 2346 2586 2788 2832 2740 2724 2694 2424 2432 2636 2783 3546 3428 3258 2948 2621 2437 2562 2329 1796 2048 2434 3280 2498 2709 2642 2258 2851 3400 2995 2982 2512 2055 1862 1481 1339 686 663 893 839 926 247 190 262 534 1228 975 484 502 325 249 162 390 410 730 1024 1068 270 296 229 65 35 71 10 26 26 14 24 30 45 22 28 10 8 0 0 0 0 0 0 0 0
2010 2050 2108 2291 2530 2785 2845 2914 2696 2581 2562 2648 2914 2948 3207 3543 3230 3482 2842 2652 2601 2300 2151 2531 2864 3081 2652 2475 2607 2682 2395 2552 2754 2814 2552 1655 1538 1052 494 435 489 378 492 270 276 144 69 92 212 162 258 238 225 228 324 334 333 351 466 658 304 196 148 161 129 166 170 58 11 10 36 25 36 34 36 20 7 19 6 0 0 0 0 0 0
1852 1863 2162 2406 2509 2682 3090 3349 3235 2789 2610 2720 2912 3118 2866 3275 3352 3110 3300 3042 3132 3007 2571 2332 2875 2669 2967 2518 2634 2646 2313 2153 1726 1705 1614 1442 804 315 296 403 468 572 606 318 188 38 39 33 73 143 102 106 227 246 61 44 158 529 402 274 244 54 160 98 40 86 30 21 32 23 15 16 24 6 28 22 29 18 9 19 0 0 0 0 0
Wind_Speed
26 22 23 15 17 16 6 11 14 16 10 5 5 5 4 3 4 5 5 5 4 4 5 6 7 7 8 9 10 11 11 11 11 12 11 10 9 8 7 6 5 5 6 6 5 5 6 6 8 9 11 12 10 7 6 7 9 4 4 8 5 6 5 3 2 0 2 4 5 3 4 4 4 6 7 7 9 9 8 8 9 6 5 5 6
19 19 22 17 16 13 8 11 13 17 10 8 8 5 3 3 3 3 3 4 4 5 6 7 8 9 9 9 10 10 10 10 11 11 10 10 9 8 6 5 4 4 4 6 5 4 5 5 6 8 10 12 13 13 13 10 8 7 3 9 4 7 6 4 3 2 0 1 4 3 2 2 2 5 7 8 9 10 11 12 12 9 7 6 6
14 16 17 16 12 15 11 10 13 14 11 8 8 7 3 3 2 2 3 3 3 4 6 7 7 8 8 8 9 9 9 10 10 9 9 9 8 7 6 4 3 2 3 3 6 8 8 6 5 7 7 7 9 10 10 6 7 9 6 8 9 4 5 5 2 2 2 2 2 1 1 2 3 2 4 6 7 9 10 11 10 9 6 6 6
10 11 15 15 10 12 12 12 18 11 5 4 5 4 4 3 3 2 1 2 2 3 4 5 6 7 7 8 9 9 9 9 9 8 8 8 7 6 4 3 2 4 4 6 7 7 8 6 4 5 4 5 6 8 7 7 9 9 6 5 7 6 5 3 3 2 3 3 3 7 1 4 5 1 2 4 5 7 10 10 9 10 7 8 10
12 12 12 14 11 13 14 13 8 2 5 11 5 1 1 1 2 2 3 2 1 2 3 5 5 6 7 7 8 8 8 8 8 8 8 8 7 5 4 5 6 6 6 7 7 6 7 7 7 7 5 4 8 8 8 6 8 9 7 10 9 7 4 5 4 0 4 6 5 10 2 3 5 3 3 4 5 7 8 8 7 7 7 8 8
8 13 13 14 12 12 15 15 5 1 4 11 7 2 2 2 2 2 2 3 3 3 4 5 6 6 6 6 7 7 7 8 8 8 8 8 6 6 5 5 6 7 7 6 5 6 5 7 7 7 6 8 6 7 8 11 8 3 8 8 7 7 6 1 2 2 2 6 9 6 2 3 3 4 8 3 6 6 8 9 8 6 7 7 8
7 10 11 11 13 14 16 16 8 4 7 8 4 3 3 1 2 2 2 2 3 4 5 5 5 4 5 5 6 7 8 8 9 9 8 8 7 6 6 7 8 9 7 6 5 3 3 4 5 7 6 4 6 11 11 7 4 5 9 10 5 3 6 8 1 3 2 2 8 5 3 4 3 2 11 6 8 7 7 8 8 7 8 8 4
9 10 11 12 13 13 22 13 6 2 2 4 4 4 5 4 4 4 3 4 4 4 4 4 4 3 4 5 5 6 9 9 9 9 9 9 8 6 7 8 8 9 6 5 4 4 5 5 5 8 9 11 11 11 10 6 5 8 8 8 4 2 4 4 5 2 3 2 10 5 4 4 3 4 12 9 8 7 7 7 6 6 5 6 8
8 10 9 13 11 9 14 9 7 5 4 4 4 6 7 6 6 4 4 4 5 5 4 3 3 3 3 4 6 8 10 10 10 9 9 9 8 7 8 9 9 7 7 8 8 8 6 7 7 8 9 7 7 8 6 5 6 8 7 6 3 0 5 5 7 9 5 2 11 4 2 2 2 4 10 10 9 7 7 6 5 7 8 8 6
5 12 11 11 10 8 9 9 6 6 5 5 5 6 7 8 7 5 2 2 5 5 5 4 3 3 3 6 7 9 9 8 8 9 9 9 7 8 11 14 12 10 7 8 7 6 5 5 6 6 7 6 3 2 5 5 2 2 2 3 2 4 5 10 7 11 9 8 9 5 5 4 1 5 12 8 8 9 5 8 11 9 10 8 10
5 7 8 7 5 8 8 8 7 7 5 5 6 5 7 6 5 6 4 2 3 6 6 6 4 2 3 4 5 7 6 6 7 9 9 8 7 12 23 12 10 6 6 5 6 7 6 7 6 8 8 8 4 4 5 7 4 1 1 4 7 7 5 13 7 9 11 12 10 7 4 6 3 5 13 8 6 7 5 6 8 9 9 8 10
7 6 6 4 4 8 8 7 7 8 7 7 6 5 5 5 3 4 7 4 4 5 5 6 5 4 2 4 4 5 5 4 6 7 8 7 10 23 14 4 5 7 8 9 8 9 9 9 9 9 13 13 11 10 7 5 5 5 5 4 2 2 9 15 4 7 7 11 8 5 6 5 3 10 14 10 7 4 4 7 8 8 9 10 9
7 7 3 4 7 6 7 6 5 7 9 10 7 7 7 5 4 4 4 6 5 5 6 5 2 1 3 3 4 4 3 3 3 5 6 7 13 21 3 4 9 9 8 9 11 11 11 9 8 9 10 12 14 15 13 9 8 4 3 7 7 5 9 19 9 1 8 6 6 5 1 6 1 10 9 12 7 6 5 6 5 6 7 8 9
8 6 5 7 5 6 5 4 6 7 10 11 8 7 7 6 6 5 4 5 5 5 6 7 5 5 4 3 3 3 3 1 2 1 2 4 12 14 5 4 3 8 9 9 10 10 12 11 10 9 9 10 12 14 14 14 12 12 11 9 2 4 8 14 10 6 9 5 5 5 4 4 3 7 7 8 9 6 7 6 4 4 5 7 8
8 8 7 6 5 4 5 6 9 8 10 10 9 8 8 8 8 6 5 6 6 6 9 9 11 11 9 5 3 3 2 3 3 3 0 3 2 11 9 3 1 5 6 8 9 9 11 13 14 12 12 11 7 8 9 9 12 12 11 6 3 5 9 9 11 5 7 8 5 7 7 6 5 3 5 5 6 6 8 7 6 2 3 5 8
8 8 7 6 6 4 5 6 6 9 8 9 7 8 9 10 9 6 5 6 7 7 6 8 10 9 8 6 5 4 5 6 6 1 1 3 7 6 8 7 6 8 9 10 8 7 13 16 17 16 12 8 7 7 10 8 8 11 10 9 7 6 11 4 7 7 6 5 4 7 8 9 7 4 4 4 5 5 6 8 7 4 2 6 6
8 8 7 5 6 9 6 2 5 7 9 7 8 7 7 8 8 7 7 7 5 6 8 11 10 10 9 8 8 8 7 4 2 4 7 9 10 8 3 3 6 9 12 11 7 7 6 7 6 12 12 8 7 7 7 8 6 8 11 9 8 8 9 5 5 8 10 5 8 10 9 10 9 3 3 3 5 6 4 6 9 6 2 6 6
8 9 6 5 5 6 6 7 7 7 9 10 9 7 7 7 6 4 5 6 7 9 11 14 14 12 11 9 7 5 5 4 6 7 10 12 11 10 5 5 7 9 10 6 3 6 10 10 6 1 9 4 2 6 7 5 2 3 3 9 6 7 8 3 4 8 6 5 11 13 7 7 3 2 3 3 3 5 6 5 7 7 6 5 6
9 9 6 5 5 4 4 4 5 8 10 12 11 7 6 6 3 5 6 8 9 11 14 13 13 13 10 9 6 8 7 8 10 10 13 11 12 14 6 6 6 10 11 7 1 3 6 9 8 3 7 6 2 4 4 2 2 3 2 4 4 9 16 8 8 10 9 8 12 11 10 8 6 2 6 3 3 5 7 6 6 7 8 7 5
7 8 7 5 3 3 3 5 7 9 11 13 9 9 8 8 7 8 9 10 11 10 12 13 14 14 11 11 11 11 11 11 13 14 11 16 13 13 8 8 9 11 12 7 5 7 6 5 7 4 11 8 6 4 1 1 9 9 6 3 5 5 11 11 12 10 11 12 14 12 13 5 3 3 8 4 4 4 6 7 6 6 7 8 7
5 6 6 5 7 5 7 8 9 11 11 8 6 8 10 12 11 11 11 11 11 12 12 13 15 15 14 14 13 14 11 12 12 14 13 15 14 13 11 11 9 9 11 8 9 12 11 12 6 8 11 14 7 5 5 4 5 4 2 1 5 2 8 8 7 10 11 12 14 12 13 8 4 3 7 6 6 5 6 6 8 6 7 7 9
7 5 5 6 6 4 8 10 10 8 8 9 6 8 11 14 14 13 13 12 11 11 12 14 16 16 15 14 14 12 12 11 11 15 17 15 15 12 13 13 11 9 9 9 8 9 10 7 4 5 10 13 13 12 10 14 11 6 3 3 3 2 3 4 4 4 6 10 13 13 14 10 7 7 8 7 5 7 8 7 7 8 7 6 7
6 5 5 8 8 6 9 11 12 9 9 11 8 9 9 9 14 14 13 14 13 13 13 14 15 15 15 13 13 13 13 13 14 14 15 16 17 17 16 14 12 9 11 12 11 7 7 8 8 11 14 21 17 13 12 10 10 13 8 4 3 3 3 2 3 3 3 6 12 13 14 12 10 11 10 8 6 8 11 9 9 9 8 7 6
5 5 6 7 9 9 9 11 12 11 13 11 9 8 10 12 16 14 14 13 12 13 13 13 13 14 14 13 15 14 16 15 15 18 20 17 16 18 19 10 13 12 11 14 14 8 13 15 14 17 21 13 11 12 11 11 11 10 8 6 4 3 4 3 1 2 2 9 9 9 7 9 11 13 10 9 9 9 10 11 11 10 9 8 6
6 6 6 8 9 10 9 9 9 9 10 9 10 8 9 13 15 14 13 14 12 13 13 12 12 13 13 14 15 14 16 16 15 15 15 14 15 15 13 12 12 10 11 10 11 8 11 8 10 13 10 12 10 9 9 10 10 11 10 9 8 6 5 3 2 1 2 4 11 11 5 5 9 15 14 11 11 10 10 11 13 13 11 9 8
6 8 8 8 10 10 9 8 9 9 10 9 9 8 9 12 14 14 14 13 13 12 11 12 12 12 13 14 14 14 16 16 15 15 15 15 15 15 13 12 13 12 12 12 10 10 11 10 11 11 11 11 9 8 9 9 10 10 10 9 9 8 7 5 4 2 2 3 13 14 10 5 5 10 14 14 12 12 14 12 11 13 12 10 9
7 9 8 9 9 9 10 9 9 9 10 9 7 8 10 10 11 12 13 12 12 11 11 11 11 11 12 14 14 15 14 14 14 15 15 15 14 15 14 13 15 15 13 14 13 12 13 12 11 11 11 11 10 9 10 9 9 10 9 9 8 8 8 7 6 6 5 5 10 17 13 8 6 6 10 14 16 13 10 9 10 10 12 12 10
8 9 9 9 10 12 11 11 10 10 9 9 8 7 8 10 10 8 10 10 11 11 10 11 10 11 12 13 13 14 13 13 13 13 14 14 14 14 14 15 15 15 13 15 14 13 12 12 12 11 12 11 10 10 10 11 10 10 11 9 10 11 10 10 9 9 9 9 8 17 15 11 8 6 6 9 10 16 12 7 8 12 12 12 10
9 9 9 11 11 12 11 12 11 10 10 9 9 8 7 9 8 7 8 8 9 10 9 10 11 11 11 13 13 13 13 13 12 12 12 12 12 13 15 14 14 14 14 14 13 13 13 12 12 12 11 11 11 10 10 11 12 11 11 12 12 13 12 13 13 12 12 10 10 14 15 12 9 7 7 8 7 10 12 9 9 11 18 13 8
8 9 10 11 12 12 12 13 12 10 10 10 9 8 7 8 8 7 7 8 9 10 10 10 11 11 11 12 13 14 13 12 11 8 6 6 8 10 14 15 14 13 14 13 13 14 13 12 12 11 11 11 11 9 10 10 11 9 11 11 12 12 11 13 13 13 13 13 12 11 15 13 11 9 8 10 10 8 8 12 9 10 15 11 7
9 11 11 11 11 11 11 11 11 10 10 11 10 9 8 8 7 7 8 9 9 9 9 12 12 12 12 8 9 13 11 6 5 6 7 9 10 10 12 9 15 12 11 13 12 12 12 11 10 11 10 10 10 9 9 9 9 10 8 9 9 10 10 11 11 12 13 13 13 13 14 15 14 12 11 12 13 13 10 10 10 11 11 10 11
10 11 11 11 11 11 11 11 11 10 11 12 10 10 9 9 8 8 8 9 9 9 9 11 13 12 9 6 9 11 4 3 6 6 8 10 11 10 10 9 8 11 12 10 11 11 11 10 11 10 11 11 10 10 9 10 9 9 9 7 8 8 8 8 10 9 10 11 12 13 14 14 18 16 15 14 16 17 11 6 14 16 16 14 13
10 11 11 11 10 10 9 10 11 11 12 13 10 10 9 8 8 8 7 7 9 9 9 10 10 13 10 10 12 10 8 8 9 8 8 11 12 11 12 11 11 13 10 10 11 11 11 11 11 11 10 10 10 10 11 11 11 9 9 7 8 8 9 8 9 9 8 9 10 10 11 12 12 19 19 16 16 17 22 10 11 18 16 16 16
9 9 10 10 8 6 6 6 8 11 12 12 10 9 9 7 6 6 5 7 7 9 9 10 10 9 5 7 8 8 8 8 7 6 7 10 12 11 9 9 9 11 8 5 10 11 10 9 9 9 9 9 9 9 10 10 10 11 10 10 10 9 9 9 8 8 8 8 7 8 9 9 11 11 14 20 18 18 30 21 17 18 19 18 19
8 8 8 8 7 6 4 3 7 10 11 11 10 9 9 8 6 5 4 5 7 8 8 9 9 7 5 7 6 6 7 7 7 7 8 8 9 8 5 5 6 8 9 10 13 9 9 9 10 9 9 9 8 8 8 9 9 10 11 11 10 9 10 9 9 8 9 8 8 7 7 7 7 9 10 11 18 17 22 33 22 18 17 19 21
6 5 4 4 5 5 3 4 6 9 10 10 10 10 10 8 5 3 2 3 4 5 6 6 4 5 4 6 6 5 4 5 7 8 8 8 8 8 7 9 13 8 9 12 9 9 10 10 11 10 10 9 9 9 9 9 9 10 9 10 10 10 10 9 8 8 8 8 8 7 6 6 6 7 6 9 10 18 18 22 31 25 16 15 16
4 3 2 2 3 4 4 6 7 9 10 11 10 9 7 7 6 2 2 1 0 3 5 4 4 4 5 7 6 4 4 6 7 8 9 9 8 5 9 12 10 9 10 10 9 9 10 11 12 11 10 10 9 8 8 8 8 9 9 10 9 10 9 9 8 8 9 8 8 9 9 7 7 6 11 11 10 12 20 20 22 31 35 29 23
5 4 3 2 2 3 4 5 6 8 8 7 8 7 6 6 4 1 4 3 1 1 3 2 1 3 7 8 6 6 6 8 8 11 11 10 9 9 11 9 10 9 10 13 11 11 11 10 11 12 11 11 9 7 7 8 7 8 9 9 10 10 11 10 10 9 9 9 10 8 9 10 9 10 9 8 10 11 15 21 22 23 25 26 25
4 5 4 3 2 3 4 6 6 7 7 7 6 5 6 5 2 2 6 3 0 1 2 2 2 2 4 5 6 8 8 8 9 11 13 13 12 11 12 12 12 12 13 13 12 11 11 11 9 11 12 10 9 8 7 6 6 7 8 10 11 11 11 10 9 10 9 9 8 7 9 10 12 12 12 13 14 13 12 13 17 20 23 23 22
4 4 5 5 4 5 6 6 6 6 5 5 5 4 4 3 3 4 5 4 4 3 3 4 5 4 5 6 6 6 4 2 5 7 10 12 11 10 11 12 12 12 13 11 11 12 12 12 10 9 8 10 11 10 9 7 6 5 5 8 11 12 11 11 11 9 9 9 10 8 8 10 11 12 13 14 14 16 15 16 15 20 21 23 23
5 6 6 6 6 6 7 8 6 7 6 4 4 4 3 3 2 4 5 5 5 5 4 6 7 6 8 9 11 11 12 10 8 13 13 11 14 14 13 11 11 13 13 12 13 13 14 13 10 9 7 8 10 11 10 9 6 6 8 8 12 11 13 13 12 12 10 10 nan 10 9 10 12 12 15 14 15 16 17 17 17 17 22 22 21
7 7 7 7 7 7 7 6 6 6 6 5 3 3 2 1 2 2 4 3 3 4 4 4 8 7 8 6 9 10 13 15 14 14 14 17 15 15 20 15 14 16 14 14 14 15 15 13 12 10 10 8 nan 10 11 10 10 7 5 nan nan 13 11 12 13 12 12 10 nan nan nan nan nan nan 13 15 17 17 17 18 17 18 17 19 24
8 8 8 7 7 7 7 7 6 5 5 4 3 2 2 1 2 2 2 0 1 2 2 4 7 11 10 9 7 13 15 15 16 15 14 17 16 19 19 19 16 16 16 16 16 15 14 11 11 9 8 10 9 10 11 11 nan 9 8 nan nan nan 16 11 12 12 11 nan nan nan nan nan nan nan nan nan 17 19 20 20 21 19 19 19 19
7 7 7 7 6 6 7 9 8 6 4 4 2 3 1 1 2 0 1 2 4 7 6 9 12 10 11 13 13 13 14 14 15 15 18 17 19 21 22 20 18 18 18 17 17 15 15 12 11 10 9 7 8 12 11 11 nan nan 6 7 nan nan nan 12 12 13 12 10 nan nan nan nan nan nan nan nan nan nan 20 21 22 21 21 20 19
8 7 7 7 6 8 8 8 8 6 5 4 3 2 4 3 4 8 6 8 6 7 9 8 11 15 16 18 18 17 19 18 21 21 22 25 25 21 21 21 20 20 19 19 18 17 16 13 12 10 9 8 8 9 11 10 11 9 8 nan 7 10 nan 13 nan 13 14 13 nan nan nan nan nan nan nan nan nan nan nan nan nan nan nan nan nan
8 8 8 8 7 6 6 6 6 6 5 5 4 4 4 6 6 6 7 7 7 9 10 11 13 14 15 17 23 22 24 24 24 25 27 27 24 21 21 20 20 21 21 19 18 18 17 16 15 12 12 11 10 9 9 11 10 11 11 nan nan nan 7 9 7 14 nan nan nan nan nan nan nan nan nan nan nan nan nan nan nan nan nan nan nan
9 8 8 7 7 6 5 5 6 6 6 5 5 6 5 6 8 8 8 8 8 10 11 13 15 17 18 20 23 23 25 25 26 25 28 25 23 22 21 19 20 22 21 20 18 17 19 17 15 14 13 14 12 10 9 nan 12 11 13 13 13 13 12 11 12 nan 13 nan nan nan nan nan nan nan nan nan nan nan nan nan nan nan nan nan nan
10 9 9 8 7 7 7 5 5 6 6 6 6 7 8 8 8 8 10 10 11 12 15 16 18 19 21 21 22 22 24 23 22 24 23 23 22 21 19 18 19 20 20 19 18 19 18 18 16 16 15 14 14 12 10 11 9 13 12 15 16 16 15 17 nan nan nan nan nan nan nan nan nan nan nan nan nan nan nan nan nan nan nan nan nan
11 10 10 9 9 8 8 6 7 8 7 7 8 9 10 9 10 10 12 13 13 15 17 19 21 21 20 20 19 20 21 21 21 21 21 21 21 19 18 18 19 19 19 19 18 20 18 17 18 17 16 16 15 14 12 11 9 14 14 16 16 16 18 nan nan nan nan nan nan nan nan nan nan nan nan nan nan nan nan nan nan nan nan nan nan
11 10 10 11 10 10 10 9 9 10 10 9 10 11 12 13 13 13 14 17 18 19 19 20 21 21 19 18 18 19 19 19 19 18 19 20 21 19 17 17 17 17 18 18 20 20 nan nan 17 17 17 16 17 15 14 13 13 14 16 17 18 17 17 18 19 18 18 nan nan nan nan nan nan nan nan nan nan nan nan nan nan nan nan nan nan
12 10 10 10 11 11 11 11 11 11 11 11 12 13 14 15 15 15 17 18 21 21 21 20 19 19 18 18 18 18 18 18 18 19 19 19 19 17 18 19 18 19 18 19 19 nan nan nan nan 19 18 17 18 17 nan nan 15 16 16 17 17 nan 18 nan nan nan nan nan nan nan nan nan nan nan nan nan nan nan nan nan nan nan nan nan nan
Wind_Direction
124 110 106 102 88 86 73 52 69 92 78 52 47 21 44 44 78 90 92 106 133 153 165 182 196 201 205 209 212 213 212 210 211 214 218 219 220 216 215 217 215 201 195 202 202 194 204 210 209 206 202 202 203 194 227 262 286 278 148 118 150 254 250 220 185 173 316 311 304 295 273 255 193 188 174 167 158 149 139 128 105 126 150 188 207
120 110 106 106 99 94 57 49 65 86 54 20 23 16 24 76 89 86 86 131 148 170 183 190 200 208 212 214 219 223 222 222 222 221 222 220 221 216 208 208 205 202 191 194 194 203 205 207 211 215 214 199 192 197 212 206 230 254 159 131 197 209 231 240 205 149 169 354 330 311 273 287 213 175 175 176 166 153 148 147 157 138 164 202 204
127 110 102 101 100 85 64 57 70 72 52 13 358 358 14 22 76 145 128 121 155 185 191 200 212 218 224 228 230 232 231 233 231 231 230 228 230 222 209 197 194 196 192 191 197 199 195 190 210 230 235 214 201 203 237 237 224 241 222 170 170 185 257 233 215 160 94 50 47 217 244 171 138 152 174 172 166 154 151 152 146 144 181 209 199
115 114 101 90 87 77 62 35 47 57 105 62 17 349 325 346 21 2 88 117 172 194 213 223 227 233 240 243 242 241 242 246 245 239 241 243 240 232 218 200 190 209 199 200 210 200 185 179 203 235 246 229 214 212 219 223 228 233 243 208 202 173 172 277 208 165 125 87 57 36 30 121 108 111 192 187 168 156 155 161 175 187 206 203 218
135 117 88 88 83 81 71 62 34 204 133 109 84 101 348 337 26 353 346 350 294 254 261 254 252 250 253 255 256 255 255 254 252 252 246 248 242 235 225 209 203 201 211 203 210 202 181 172 194 203 206 228 229 220 195 215 234 236 221 205 201 171 221 111 309 137 113 114 95 84 189 25 131 117 202 247 185 170 174 178 186 186 213 221 220
110 103 102 98 93 89 89 95 80 16 43 74 73 66 38 3 11 320 331 320 309 312 284 269 265 267 267 275 276 273 269 264 257 249 247 245 241 236 228 221 213 208 206 201 222 214 184 170 176 178 206 223 221 237 220 221 229 274 275 259 199 173 183 276 343 333 75 91 79 103 183 247 332 134 272 231 230 208 199 189 198 192 200 218 229
107 101 102 89 95 93 83 91 48 21 52 50 85 82 56 17 347 354 349 318 316 303 283 277 273 289 295 293 286 279 269 262 252 248 243 242 242 236 234 230 219 215 203 195 213 209 162 148 148 144 168 232 230 232 240 238 244 232 264 276 270 181 199 192 224 269 101 134 105 138 226 217 234 303 256 246 244 233 220 212 197 194 212 208 224
99 107 99 91 98 105 96 81 87 125 124 112 71 43 47 29 13 21 6 352 334 308 269 263 291 304 308 287 278 265 260 254 252 247 244 245 238 234 232 233 229 222 197 180 188 199 170 141 149 147 172 182 195 231 230 224 248 237 230 259 259 221 241 200 161 171 67 117 113 127 194 217 226 245 270 263 262 249 236 248 216 201 206 227 219
108 107 95 92 94 54 87 97 69 46 19 39 60 31 25 25 4 7 358 348 335 317 300 297 261 243 252 263 251 244 243 242 246 249 246 243 234 224 225 225 221 217 192 185 191 198 169 150 165 160 164 218 169 231 241 231 229 227 201 219 143 324 218 170 167 110 96 80 92 119 103 185 205 264 279 280 265 252 244 242 233 215 210 216 207
51 93 82 80 80 96 92 100 90 50 43 13 18 18 23 19 1 338 317 357 340 330 313 285 274 256 247 241 233 241 236 243 246 249 248 242 231 221 219 206 192 197 193 181 175 177 160 150 164 160 154 157 232 258 271 297 260 332 293 254 121 125 183 156 184 122 120 102 102 98 126 134 39 300 291 281 279 270 237 206 197 209 215 202 209
46 61 81 79 74 97 84 70 35 37 44 18 13 360 26 23 10 331 340 36 5 327 327 308 290 296 277 272 269 253 251 245 249 251 248 240 234 229 230 196 148 168 182 166 174 150 150 158 164 155 140 148 185 258 280 301 290 163 350 318 353 24 134 159 202 113 152 119 114 152 106 60 66 295 305 308 298 300 278 245 243 234 244 228 223
19 43 66 99 71 72 73 45 34 12 7 19 15 15 38 56 24 354 348 8 27 333 321 312 324 333 324 314 304 287 267 264 258 251 248 246 233 241 223 190 126 123 172 158 151 156 157 158 167 166 157 156 169 169 191 222 300 356 10 340 254 347 145 164 152 107 81 104 105 38 97 79 63 307 319 322 319 304 290 259 253 253 246 240 236
6 30 46 54 42 48 66 45 29 8 357 11 14 26 44 44 36 26 360 12 15 358 344 315 321 29 332 360 326 317 297 279 254 255 251 253 254 257 309 90 132 159 166 155 166 158 159 168 168 179 166 163 170 167 166 186 179 154 172 235 199 119 151 158 166 99 104 94 117 113 16 87 14 307 323 332 332 330 305 273 247 263 257 255 244
1 9 14 26 37 36 52 5 17 11 0 8 12 31 54 58 49 33 26 29 34 19 358 348 8 28 30 23 343 342 355 306 311 269 272 258 265 301 346 64 157 162 158 162 166 170 160 164 189 187 177 169 178 176 174 180 177 160 178 231 14 91 165 162 179 141 125 180 170 157 172 170 45 301 320 334 339 337 324 302 279 230 260 258 254
356 352 15 1 22 32 19 346 4 14 8 19 25 32 53 63 59 49 39 50 52 36 26 10 25 27 34 21 18 14 16 28 36 22 50 247 308 342 3 7 69 88 116 142 146 173 161 171 179 187 191 169 168 197 180 184 162 162 166 234 129 203 231 180 180 198 169 188 190 192 206 160 242 287 318 343 337 339 327 312 308 279 269 270 261
360 356 0 351 1 341 32 355 51 12 17 29 39 39 53 62 58 50 44 49 51 62 79 53 36 38 35 28 31 34 37 44 48 44 155 85 84 65 2 22 45 82 102 108 125 152 175 187 175 177 161 146 142 199 192 195 171 144 157 189 220 218 243 221 173 223 257 237 242 222 207 207 165 267 355 354 330 331 330 315 310 272 261 275 268
8 11 8 355 9 2 4 29 47 25 32 44 49 63 67 74 63 50 40 45 20 35 56 66 49 42 48 41 39 41 42 48 84 51 52 79 85 93 104 84 75 66 91 96 116 145 197 196 167 151 140 156 156 193 192 204 182 166 161 191 218 234 242 186 201 215 242 264 271 247 221 218 175 245 351 11 347 321 312 309 301 291 262 277 275
4 15 13 16 26 17 14 359 21 46 49 62 53 65 54 65 60 48 25 22 14 32 50 52 47 43 43 47 53 58 61 54 55 53 68 72 87 105 98 97 99 100 100 118 127 168 174 155 163 166 121 84 165 174 176 202 217 262 164 153 203 289 281 305 265 252 263 267 259 258 251 256 243 125 310 359 8 325 307 312 312 305 282 252 266
358 360 7 22 18 26 27 19 40 55 57 70 67 52 52 55 41 25 20 19 25 30 43 47 47 46 40 53 54 63 74 71 63 61 71 80 86 80 64 70 77 82 88 83 78 155 167 136 130 121 89 53 333 95 95 128 278 317 1 103 133 323 311 308 289 278 296 282 266 262 243 225 281 77 316 347 21 318 312 306 308 304 291 271 250
345 351 1 10 40 71 47 36 62 64 74 78 66 53 50 37 38 28 25 26 27 30 38 44 47 46 40 52 52 62 66 67 73 70 66 79 76 92 95 78 59 70 75 85 335 51 41 81 80 125 97 62 41 21 237 244 243 245 251 205 149 328 307 303 292 291 291 280 274 264 268 264 222 358 324 346 331 313 305 306 300 295 287 279 268
337 355 21 29 36 43 35 49 65 64 80 76 82 81 49 40 37 35 35 30 27 28 35 46 50 52 45 44 53 68 68 74 70 78 74 77 84 73 65 73 72 74 76 84 21 23 39 44 23 2 55 55 58 50 8 285 285 279 252 204 102 259 248 264 282 313 296 290 279 276 295 318 310 300 330 337 316 307 293 295 296 293 290 287 287
356 4 30 44 44 79 67 73 83 96 108 99 92 77 66 43 47 48 49 45 43 37 45 57 56 58 58 58 67 73 75 77 76 73 75 74 73 57 71 64 63 67 69 73 67 46 52 63 55 19 24 29 35 33 18 3 359 2 6 69 56 269 264 276 297 293 297 309 304 308 333 318 315 319 317 331 302 290 283 281 288 291 290 289 289
7 26 32 43 56 65 78 91 90 84 95 90 71 65 63 87 69 54 58 54 51 54 58 57 59 65 63 65 70 74 69 63 67 76 85 87 86 88 79 71 63 76 58 64 67 57 49 40 41 38 31 36 30 30 34 41 29 15 36 40 45 46 83 49 11 318 309 293 302 312 317 320 311 301 312 302 273 262 271 276 280 287 290 291 295
28 52 40 57 65 69 64 70 74 67 63 72 74 68 67 59 66 56 60 59 59 63 65 59 59 61 69 66 71 62 73 72 68 70 72 69 70 61 67 84 72 66 71 70 49 39 59 21 25 44 40 39 42 41 48 49 53 60 57 64 65 74 79 72 52 335 335 311 303 293 302 307 309 299 303 300 284 259 260 268 275 281 292 299 306
62 69 70 72 65 73 72 76 82 84 79 84 83 60 77 64 64 59 58 59 59 63 65 58 62 67 68 73 76 78 75 74 70 70 74 75 76 78 66 56 77 80 69 74 76 73 71 68 48 50 53 48 52 59 61 62 63 67 67 67 73 73 68 62 45 34 345 331 304 320 333 324 316 315 314 298 270 250 244 247 262 272 283 295 309
69 79 74 67 69 71 73 74 74 71 70 76 77 85 54 59 58 60 57 60 61 64 66 69 67 66 73 73 77 70 67 70 67 67 68 66 68 73 73 74 73 71 64 69 64 62 66 53 57 60 62 62 59 66 70 67 71 70 67 66 65 68 64 61 57 33 34 353 314 322 338 345 328 315 313 303 289 261 228 217 243 263 272 281 293
79 85 76 78 71 69 69 71 65 69 70 75 66 75 68 59 57 58 56 55 64 66 72 73 74 70 71 76 73 66 67 67 63 64 66 68 68 67 69 70 67 68 65 66 58 56 56 52 54 56 61 67 67 67 70 75 72 78 74 70 70 73 71 64 57 47 40 12 325 321 332 344 346 329 318 308 306 295 271 231 220 254 273 278 283
83 76 76 78 72 58 55 58 58 59 62 67 68 59 59 56 52 51 65 63 62 68 75 75 74 67 68 70 71 78 72 63 62 64 66 68 68 70 69 66 66 65 63 66 62 63 64 60 59 61 62 67 72 70 76 76 76 71 77 75 73 72 68 64 55 47 41 27 13 334 333 336 342 353 345 323 319 318 311 275 238 233 248 250 267
76 76 87 80 72 69 52 53 50 50 53 56 57 59 53 54 48 42 58 78 79 81 74 73 67 68 62 65 69 72 69 66 61 62 65 70 74 75 68 67 65 62 59 58 58 63 62 65 67 72 76 78 78 74 72 72 70 68 71 75 73 68 61 64 59 52 46 40 28 342 341 339 345 350 349 338 334 323 318 298 265 251 251 231 233
89 92 87 87 77 66 57 47 44 41 47 51 51 57 55 50 47 46 54 61 75 79 86 73 70 66 63 57 61 65 68 65 62 57 83 86 79 81 87 72 61 58 53 51 48 47 50 52 59 67 76 76 77 71 68 67 67 62 56 63 65 68 65 63 59 52 49 41 31 25 350 353 356 351 347 340 344 345 340 310 299 288 280 297 305
99 96 93 91 83 67 55 49 40 38 39 49 48 50 53 56 57 68 67 73 69 68 80 86 73 65 60 54 72 65 58 70 87 74 40 50 58 59 58 76 77 58 50 47 38 37 36 37 40 49 54 55 55 52 56 57 49 47 42 49 54 53 52 52 55 49 45 37 34 30 25 12 5 357 350 343 347 349 344 319 327 312 317 313 278
96 94 98 93 78 65 54 45 38 32 39 44 44 51 52 53 63 72 73 72 69 62 59 68 73 67 58 38 43 56 41 19 45 48 59 61 58 49 47 47 68 76 52 41 39 31 29 26 24 29 35 36 35 30 28 32 28 28 33 28 39 42 34 36 43 39 37 36 36 33 28 26 10 3 358 354 351 352 317 319 337 337 334 318 298
110 97 97 93 75 62 54 37 32 30 39 44 46 50 50 55 66 70 71 69 66 61 54 51 53 59 49 30 40 38 21 16 30 38 45 60 61 49 49 35 33 38 40 40 31 27 22 17 17 22 23 30 27 21 17 16 12 8 15 10 27 29 22 21 23 23 24 28 25 31 37 30 28 4 3 2 357 349 307 12 352 334 330 322 318
115 117 98 90 93 97 74 41 24 28 36 44 46 48 42 50 67 70 63 68 63 55 46 49 48 50 42 69 52 31 28 28 27 31 57 63 63 60 52 46 22 34 21 35 41 20 13 7 10 16 17 25 19 14 11 8 3 359 358 356 7 11 12 8 9 11 14 17 13 22 29 33 22 24 9 1 360 351 329 351 14 349 335 335 332
115 107 86 83 83 99 95 45 19 25 25 36 36 41 38 40 53 72 67 56 67 59 54 43 45 45 27 34 37 24 27 37 34 23 41 63 66 63 42 41 59 29 347 12 45 11 360 2 356 359 359 5 6 9 10 5 357 358 353 349 351 351 357 355 351 1 356 355 7 4 9 16 19 12 12 7 352 344 331 344 5 0 345 345 339
93 112 110 87 77 68 63 47 14 22 21 24 27 34 39 38 53 89 99 50 80 85 51 61 43 359 29 47 47 35 5 4 17 29 37 39 44 45 29 18 19 15 355 6 23 1 347 348 342 348 344 346 354 4 1 1 1 356 348 345 340 341 345 336 338 342 330 341 338 341 350 344 353 349 337 8 359 326 330 333 342 357 1 353 346
45 71 82 33 47 33 30 37 25 14 18 17 21 32 31 34 41 35 21 280 102 70 72 61 51 346 359 38 34 37 45 24 10 26 40 49 44 46 42 33 14 356 359 4 357 343 338 334 331 332 328 333 344 358 355 354 357 350 345 342 330 335 333 321 323 321 320 326 327 325 327 321 324 336 348 339 339 332 324 327 329 338 348 1 356
24 25 12 3 351 360 7 21 27 16 7 14 13 23 27 25 39 61 271 266 94 59 241 232 350 358 7 24 12 20 26 33 15 10 29 32 37 14 39 21 337 335 6 353 343 332 327 323 323 320 320 325 328 335 341 349 344 343 336 332 327 331 326 326 313 317 316 316 318 315 312 312 307 302 301 304 315 326 324 324 331 334 335 340 345
10 17 12 353 329 339 347 355 16 24 3 358 358 11 38 35 21 343 284 289 315 264 294 328 317 11 29 22 14 11 22 22 25 17 22 23 10 14 32 0 339 337 1 337 330 322 316 313 314 314 315 319 317 320 327 327 338 342 340 321 323 326 325 314 315 307 306 304 299 312 313 306 306 300 293 299 301 302 305 315 323 326 325 329 334
354 347 2 7 359 353 345 343 357 1 5 349 336 355 28 26 4 348 334 341 46 349 356 5 332 0 15 353 359 1 328 357 25 31 36 11 345 354 25 347 343 353 329 324 318 320 311 307 308 305 307 314 319 317 321 322 332 339 318 319 318 324 316 309 307 306 304 305 301 302 307 304 299 296 294 296 296 297 298 302 305 304 308 313 319
350 347 348 359 3 355 348 351 339 346 338 335 330 347 15 18 48 55 34 19 36 2 1 353 337 3 10 1 353 356 350 341 15 20 4 347 338 347 322 317 340 328 321 315 316 306 306 305 307 306 303 303 308 315 317 317 321 335 323 321 314 322 318 306 306 303 305 300 nan 297 299 300 298 298 300 296 294 294 299 301 301 300 305 308 301
346 345 349 351 350 350 344 335 326 335 328 327 318 335 344 32 31 59 68 46 30 27 15 355 348 346 327 327 352 341 340 347 359 8 348 339 347 327 312 326 317 312 310 309 305 309 307 308 305 307 310 303 nan 308 305 313 323 314 298 nan nan 315 311 317 312 299 296 292 nan nan nan nan nan nan 289 296 295 295 296 294 291 291 289 295 304
347 344 343 346 340 329 325 316 312 319 319 324 313 299 272 11 55 101 103 177 348 325 302 308 283 296 317 329 356 346 347 349 352 337 333 328 322 311 307 303 312 307 308 306 307 306 305 307 311 309 295 301 306 310 314 315 nan 287 293 nan nan nan 313 311 305 301 290 nan nan nan nan nan nan nan nan nan 289 291 291 290 291 288 285 286 286
344 342 340 342 319 319 325 318 312 317 303 305 286 294 295 41 352 315 286 221 227 250 248 307 310 320 324 318 351 338 328 323 317 320 314 313 309 309 310 311 304 304 304 301 300 306 307 309 314 310 298 294 302 300 304 304 nan nan 320 300 nan nan nan 304 309 296 288 279 nan nan nan nan nan nan nan nan nan nan 290 291 291 290 287 283 282
339 341 337 333 314 342 342 332 312 311 298 292 306 307 302 319 304 289 280 291 315 318 319 332 327 322 323 331 324 316 316 314 314 316 306 299 303 313 305 301 299 298 298 301 303 302 302 302 298 291 294 287 276 277 290 292 296 296 303 nan 334 342 nan 300 nan 307 306 303 nan nan nan nan nan nan nan nan nan nan nan nan nan nan nan nan nan
330 331 333 342 347 338 346 334 307 290 293 307 309 295 290 279 305 307 305 313 316 312 317 316 315 315 315 306 308 316 310 309 307 306 305 302 309 306 300 298 299 297 298 299 297 300 301 297 293 288 285 284 271 276 278 289 291 306 313 nan nan nan 316 308 334 313 nan nan nan nan nan nan nan nan nan nan nan nan nan nan nan nan nan nan nan
321 316 321 330 339 331 325 308 286 275 279 289 313 292 291 294 316 308 302 303 303 302 301 303 301 298 300 305 302 304 306 308 307 306 305 310 304 300 299 297 296 297 298 299 301 298 292 291 288 283 274 272 276 277 276 nan 295 304 315 318 317 316 315 318 308 nan 312 nan nan nan nan nan nan nan nan nan nan nan nan nan nan nan nan nan nan
318 317 318 315 318 314 310 311 276 272 279 285 302 295 290 294 298 299 297 304 307 303 301 302 303 301 301 302 302 304 306 306 306 307 307 304 303 300 298 294 293 295 298 297 289 286 287 286 284 282 279 273 271 271 267 271 288 299 308 310 314 312 313 316 nan nan nan nan nan nan nan nan nan nan nan nan nan nan nan nan nan nan nan nan nan
324 323 312 302 299 300 305 300 291 283 284 306 298 302 294 288 287 286 295 295 296 295 298 302 302 303 305 305 310 310 309 311 312 312 310 307 304 300 297 296 298 300 301 299 297 289 287 282 282 283 281 277 274 271 275 280 286 287 303 303 306 312 315 nan nan nan nan nan nan nan nan nan nan nan nan nan nan nan nan nan nan nan nan nan nan
321 313 304 299 302 296 301 306 300 284 286 299 298 302 299 288 290 293 300 297 297 299 301 302 306 307 311 314 314 312 312 312 313 311 309 306 304 305 303 300 301 302 300 298 288 290 nan nan 282 276 274 275 275 278 280 281 281 282 290 297 299 303 308 307 310 314 312 nan nan nan nan nan nan nan nan nan nan nan nan nan nan nan nan nan nan
310 307 302 302 301 299 297 301 299 289 293 296 300 302 296 294 294 300 303 304 307 307 307 311 312 310 312 317 315 311 308 309 311 308 306 309 307 306 303 302 300 296 296 296 297 nan nan nan nan 281 281 278 277 278 nan nan 283 285 289 294 297 nan 299 nan nan nan nan nan nan nan nan nan nan nan nan nan nan nan nan nan nan nan nan nan nan